Regional Weather Roundup
Issued by NWS

Home | Current Version | Previous Version | Graphics & Text | Print | Product List | Glossary Off
Versions: 1 2 3 4 5 6 7 8 9 10 11 12 13 14 15 16 17 18 19 20 21 22 23 24 25 26 27 28 29 30 31 32 33 34 35 36 37 38 39 40 41 42 43 44 45 46 47 48 49 50

000
ASUS43 KMKX 181020
RWRWI

WISCONSIN REGIONAL WEATHER ROUNDUP
NATIONAL WEATHER SERVICE MILWAUKEE/SULLIVAN WI
400 AM CST SUN FEB 18 2018

NOTE: "FAIR" INDICATES FEW OR NO CLOUDS BELOW 12,000 FEET WITH NO
SIGNIFICANT WEATHER AND/OR OBSTRUCTIONS TO VISIBILITY.

WIZ001-002-006>008-014>016-023>028-181100-
NORTHWEST WISCONSIN

CITY           SKY/WX    TMP DP  RH WIND       PRES   REMARKS
SUPERIOR ARPT  MOCLDY    12   4  70 SW5       30.08F WCI   4
ASHLAND        FAIR       5   1  83 SW7       30.09R WCI  -7
HAYWARD        FAIR       7   2  80 CALM      30.08R
SIREN          FAIR      13   5  68 SE3       30.08F
CUMBERLAND     MOCLDY     9   1  72 CALM      30.07F
RICE LAKE      FAIR       8   3  82 CALM      30.07F
CHETEK         FAIR      11   5  74 CALM      30.09F
LADYSMITH      FAIR       9   2  74 CALM      30.10F
EAU CLAIRE     FAIR       9   6  88 NE3       30.10F
MENOMONIE      FAIR      10   5  80 E5        30.10F WCI   2
NEW RICHMOND   CLOUDY    12   4  72 E7        30.04F WCI   1
OSCEOLA        CLOUDY    15   7  70 E5        30.08F WCI   8
$$

WIZ003>005-009-010-017-018-181100-
NORTH CENTRAL WISCONSIN

CITY           SKY/WX    TMP DP  RH WIND       PRES   REMARKS
MANITOWISH WTR FAIR       1  -2  90 CALM      30.03R
ARBOR VITAE    FAIR       9   6  87 CALM      30.04R
WOODRUFF       FAIR       9   6  87 CALM      30.04R
RHINELANDER    FAIR       7   3  84 CALM      30.06R
EAGLE RIVER    FAIR       4   0  82 CALM      30.05R
LAND O LAKES   FAIR       1  -2  88 SW5       30.06R WCI  -9
PHILLIPS       FAIR       7   3  86 CALM      30.08R
TOMAHAWK       FAIR       5   1  85 CALM      30.08R
MEDFORD        FAIR       8   3  80 SW5       30.09R WCI   0
MERRILL        FAIR       7   5  91 CALM      30.12R
$$

WIZ029-030-035-036-043>047-181100-
CENTRAL WISCONSIN

CITY           SKY/WX    TMP DP  RH WIND       PRES   REMARKS
WAUSAU         FAIR      12   7  80 S3        30.10R
MOSINEE        FAIR      14  10  85 W6        30.12S WCI   5
MARSHFIELD     FAIR       9   6  88 CALM      30.09R
STEVENS POINT  FAIR       9   8  98 CALM      30.13R
WAUPACA        FAIR      17  13  86 CALM      30.15S
WAUTOMA        FAIR      13  10  88 CALM      30.15R
WISC RAPIDS    FAIR      12   9  87 CALM      30.13R
CAMP DOUGLAS   FAIR       9   6  88 SE3       30.14R
$$

WIZ011>013-019>022-031-037>040-048>050-181100-
NORTHEAST WISCONSIN

CITY           SKY/WX    TMP DP  RH WIND       PRES   REMARKS
ANTIGO         FAIR       6   4  91 SW3       30.09R
SHAWANO        FAIR      17  14  86 CALM      30.15R
OCONTO         FAIR      18  15  90 W7        30.15R WCI   8
STURGEON BAY   FAIR      21  17  84 SW7       30.14R WCI  12
GREEN BAY      FAIR      18  14  84 W7        30.16R WCI   9
MANITOWOC      FAIR      20  17  88 SW8       30.18R WCI  10
APPLETON       FAIR      19  14  79 SW3       30.14R
CLINTONVILLE   FAIR      13  10  87 SW6       30.16R WCI   4
OSHKOSH        FAIR      19  16  88 CALM      30.15R
$$

WIZ032>034-041-042-053>061-181100-
SOUTHWEST WISCONSIN

CITY           SKY/WX    TMP DP  RH WIND       PRES   REMARKS
LA CROSSE      FAIR      17  14  88 SE7       30.15R WCI   8
SPARTA         FAIR       8   6  92 CALM      30.16R
VIROQUA        FAIR      19  19 100 S7        30.12F WCI  10
BOSCOBEL       FAIR      11   7  84 CALM      30.19R
PRAIRIE DU CHI FAIR      17  15  91 CALM      30.18S
PLATTEVILLE    CLOUDY    15  15 100 SE3       30.17R VSB 1/4
$$

WIZ056-057-062-063-064-067-068-181100-
SOUTH CENTRAL WISCONSIN

CITY           SKY/WX    TMP DP  RH WIND       PRES   REMARKS
REEDSBURG      FAIR      17  17 100 CALM      30.18R
BARABOO/DELLS  FAIR      17  15  92 CALM      30.17R
LONE ROCK      FAIR      12  10  92 CALM      30.20R FOG
MINERAL POINT  FOG       19  19 100 S3        30.16R VSB<1/4
MADISON        FAIR      14  12  92 CALM      30.17S
MIDDLETON      FAIR      17  16  94 CALM      30.18R
WATERTOWN      FAIR      12  12 100 CALM      30.18R
MONROE         FOG       18  18 100 SW8       30.17R VSB 1/4 WCI   7
JANESVILLE     SNOW      19  19 100 CALM      30.18S VSB 1/2
$$

WIZ051-052-058>065-066-070>072-181100-
SOUTHEAST WISCONSIN

CITY           SKY/WX    TMP DP  RH WIND       PRES   REMARKS
MILWAUKEE      FAIR      24  21  88 CALM      30.18F
WAUKESHA       FAIR      19  18  93 CALM      30.18F
MILWAUKEE/TIMM FAIR      19  18  93 CALM      30.21R FOG
RACINE         FAIR      23  20  88 SW6       30.21S WCI  16
BURLINGTON     FAIR      18  16  91 CALM      30.20R
KENOSHA        FAIR      22  18  85 SW7       30.20S WCI  13
FOND DU LAC    FAIR      20  16  84 SW3       30.15R
SHEBOYGAN      FAIR      16  14  92 S7        30.18R WCI   6
WEST BEND      FAIR      19  19 100 CALM      30.17S
JUNEAU         FAIR      19  18  95 CALM      30.16S FOG
$$

LSZ147-162-181100-
LAKE SUPERIOR

STATION/POSITION TIME  TEMP    WIND        PRES    WAVE
                       AIR SEA DIR/SP/G            HT/PER
                 (UTC) (F)     (DEG/KT/KT) (MB)    (FT/S)
DEVILS ISLAND    1000   19     300/ 14/ 16 1019.4R
SAXON HARBOR     1000    9     200/  6/ 14 1019.0
$$

LMZ867-665-643>646-181100-
LAKE MICHIGAN

STATION/POSITION TIME  TEMP    WIND        PRES    WAVE
                       AIR SEA DIR/SP/G            HT/PER
                 (UTC) (F)     (DEG/KT/KT) (MB)    (FT/S)
NORTHPORT PIER   1014   20                 1020.3R
KEWAUNEE LAKESHO 0954   22     260/  6/  9 1020.1R
SHEBOYGAN LAKESH 1000   23     250/  8/  9 1022.7R
PORT WASHINGTON  0940   23     270/  2/  4 1023.0S
MILWAUKEE LAKESH 1000   25     250/  4/  6   N/A
KENOSHA   LAKESH 1000   25     250/  8/ 12 1023.0
$$

TC  - TEMPERATURE IN CELSIUS
VSB - VISIBILITY IN STATUTE MILES
WCI - WIND CHILL INDEX
HX  - HEAT INDEX





USA.gov is the U.S. government's official web portal to all federal, state and local government web resources and services.